Weather in Komyshnia

Ukraine / Poltava Region     50°11′03″N   33°40′52″E
temp.,
°C
wind,
m/s
gust,
m/s
humid.,
%
clouds,
%
prec.,
mm/h
press.,
hPa
HPBL,
m
14 may, fri
fri1400:00+11ese357189 0.0 101273
03:00+11e466991 0.0 1012108
06:00+10e3883100 0.0 1010160
09:00+17ese477893 0.3 1009459
12:00+21sse576535 0.1 10081437
15:00+22s7958100 0.6 10071808
18:00+20s4868100 0.3 1007401
21:00+15sse478547 0.3 1008111
15 may, sat
sat1500:00+13s36917 0.0 100982
03:00+12s499321 0.0 1009172
06:00+11s37965 0.0 1010158
09:00+17ssw46755 0.0 1011572
12:00+20ssw68635 0.5 10111460
15:00+20sw6764100 0.9 10111342
18:00+19sw366952 0.3 1011716
21:00+13wnw228226 0.3 101210
16 may, sun
sun1600:00+14nw1176100 0.0 101310
03:00+12n118382 0.0 101310
06:00+12n22850 0.0 101319
09:00+18nne21690 0.0 1014382
12:00+21ne1157100 0.0 10131025
15:00+23e2350100 0.0 10121776
18:00+23ene235857 0.0 1011397
21:00+17ne337415 0.0 101031
17 may, mon
mon1700:00+15ne488049 0.0 1009130
03:00+15nne4781100 0.1 1008137
06:00+15ene3794100 1.7 1006154
09:00+19ene2376100 1.7 1005416
12:00+22se3468100 0.0 1004919
15:00+24sw5664100 0.1 10041403
18:00+21w457912 0.3 1005717
21:00+16wnw349411 0.5 100869
18 may, tue
tue1800:00+13wnw359776 0.0 1008115
03:00+12nw3797100 0.0 1009156
06:00+12nw249599 0.0 1010116
09:00+17wnw337799 0.0 1011564
12:00+18wsw337453 0.2 1011865
15:00+20w346798 0.9 10111232
18:00+21s135720 0.0 10111231
21:00+15sse22804 0.0 101114